• Join FlightAware (Why Join?)
  • Login
  • US Flag 
Trick or treat! (Boo!!) 
07:07PM EDT


 

Airport Tracker/Info


-or-


 

Live Flight TrackerFlight Track Log ✈ DAL268 ✈ 20-Sep-2013 ✈ KSFO - KJFK

Flight Track Log - Related Links

Times and Time Zones

All times are in EDT time to prevent confusion due to time zone crossing. See the DAL268 flight status page for this flight to view local times or setup timezone preferences in your user account.

Time Position Orientation Groundspeed Altitude Reporting Facility
EDT Latitude Longitude Course Direction KTS MPH feet Rate Location/Type
02:27PM 37.6500 -122.3333 35° Northeast 193 222 1,900  Level Northern Cal TRACON
02:28PM 37.7000 -122.2667 47° Northeast 256 295 3,800 2,340 Climbing Northern Cal TRACON
02:29PM 37.7569 -122.2264 38° Northeast  Level FlightAware Approximate
02:29PM 37.7978 -122.1608 41° Northeast 288 331 8,300  Level Oakland Center
02:30PM 37.8596 -122.1238 38° Northeast  Level FlightAware Approximate
02:30PM 37.8669 -122.0967 36° Northeast 305 351 10,600  Level Oakland Center
02:31PM 37.9623 -122.0211 38° Northeast  Level FlightAware Approximate
02:31PM 37.9475 -122.0203 37° Northeast 361 415 11,500  Level Oakland Center
02:32PM 38.0581 -121.9179 35° Northeast  Level FlightAware Approximate
02:32PM 38.0381 -121.9356 36° Northeast 394 453 13,900  Level Oakland Center
02:33PM 38.1314 -121.8467 37° Northeast 414 476 16,000 1,860 Climbing Oakland Center
02:34PM 38.2331 -121.7144 46° Northeast 437 503 17,800 1,800 Climbing Oakland Center
02:36PM 38.3139 -121.5892 51° Northeast 456 525 19,800 1,800 Climbing Oakland Center
02:37PM 38.4031 -121.4608 48° Northeast 472 543 21,600 1,560 Climbing Oakland Center
02:38PM 38.4850 -121.3278 52° Northeast 484 557 23,000 1,380 Climbing Oakland Center
02:39PM 38.5703 -121.1878 52° Northeast 495 570 24,500 1,440 Climbing Oakland Center
02:40PM 38.6717 -121.0261 51° Northeast 513 590 26,000 1,260 Climbing Oakland Center
02:41PM 38.7614 -120.8800 52° Northeast 522 601 27,100 1,020 Climbing Oakland Center
02:42PM 38.8533 -120.7283 52° Northeast 536 617 28,100 1,260 Climbing Oakland Center
02:43PM 38.9467 -120.5758 52° Northeast 543 625 29,700 1,320 Climbing Oakland Center
02:44PM 39.0392 -120.4242 52° Northeast 541 623 30,900 1,260 Climbing Oakland Center
02:45PM 39.1294 -120.2717 53° Northeast 537 618 32,400 1,320 Climbing Oakland Center
02:46PM 39.2328 -120.1028 52° Northeast 530 610 33,700 1,140 Climbing Oakland Center
02:47PM 39.3242 -119.9528 52° Northeast 531 611 34,800 600 Climbing Oakland Center
02:48PM 39.4119 -119.8044 53° Northeast 519 597 35,000 60 Climbing Oakland Center
02:49PM 39.5014 -119.6533 52° Northeast 525 604 35,000  Level Oakland Center
02:50PM 39.5894 -119.5025 53° Northeast 526 605 35,000  Level Oakland Center
02:51PM 39.6800 -119.3497 52° Northeast 532 612 35,000  Level Oakland Center
02:52PM 39.7686 -119.1969 53° Northeast 529 609 35,000  Level Oakland Center
02:53PM 39.8581 -119.0447 53° Northeast 526 605 35,000  Level Oakland Center
02:54PM 39.9461 -118.8903 53° Northeast 526 605 35,000  Level Oakland Center
02:55PM 40.0347 -118.7375 53° Northeast 525 604 35,000  Level Oakland Center
02:56PM 40.1319 -118.5464 56° Northeast 526 605 35,000  Level Oakland Center
02:57PM 40.1842 -118.3686 69° East 523 602 35,000  Level Oakland Center
02:58PM 40.2308 -118.1881 71° East 522 601 35,000  Level Oakland Center
02:59PM 40.2778 -118.0181 70° East 523 602 35,000  Level Oakland Center
03:00PM 40.3247 -117.8469 70° East 521 600 35,000  Level Oakland Center
03:01PM 40.3775 -117.6469 71° East 518 596 35,000  Level Oakland Center
03:02PM 40.4236 -117.4753 71° East 520 598 35,000  Level Oakland Center
03:03PM 40.4778 -117.2744 70° East 521 600 35,000  Level Oakland Center
03:04PM 40.5242 -117.1025 70° East 523 602 35,000  Level Oakland Center
03:05PM 40.5761 -116.8956 72° East 521 600 35,000  Level Salt Lake Center
03:06PM 40.6239 -116.7225 70° East 518 596 35,000  Level Salt Lake Center
03:07PM 40.6781 -116.5233 70° East 516 594 35,000  Level Salt Lake Center
03:08PM 40.7228 -116.3528 71° East 513 590 35,000  Level Salt Lake Center
03:10PM 40.7769 -116.1533 70° East 516 594 35,000  Level Salt Lake Center
03:11PM 40.8228 -115.9825 70° East 515 593 35,000  Level Salt Lake Center
03:12PM 40.8747 -115.7839 71° East 513 590 35,000  Level Salt Lake Center
03:13PM 40.9192 -115.6133 71° East 514 592 35,000  Level Salt Lake Center
03:14PM 40.9700 -115.4139 71° East 512 589 35,000  Level Salt Lake Center
03:15PM 41.0142 -115.2439 71° East 510 587 35,000  Level Salt Lake Center
03:16PM 41.0569 -115.0714 72° East 513 590 35,000  Level Salt Lake Center
03:17PM 41.1086 -114.8733 71° East 509 586 35,000  Level Salt Lake Center
03:18PM 41.1503 -114.7047 72° East 509 586 35,000  Level Salt Lake Center
03:19PM 41.1933 -114.5283 72° East 506 582 35,000  Level Salt Lake Center
03:20PM 41.2464 -114.3169 71° East 503 579 35,000  Level Salt Lake Center
03:21PM 41.2886 -114.1408 72° East 502 578 35,000  Level Salt Lake Center
03:22PM 41.3325 -113.9644 72° East 503 579 35,000  Level Salt Lake Center
03:23PM 41.3681 -113.7869 75° East 499 574 35,000  Level Salt Lake Center
03:24PM 41.3808 -113.6033 85° East 498 573 35,000  Level Salt Lake Center
03:25PM 41.3903 -113.4217 86° East 495 570 35,000  Level Salt Lake Center
03:26PM 41.4044 -113.2039 85° East 493 567 35,000  Level Salt Lake Center
03:27PM 41.4161 -113.0222 85° East 493 567 35,000  Level Salt Lake Center
03:28PM 41.4261 -112.8419 86° East 490 564 35,000  Level Salt Lake Center
03:29PM 41.4375 -112.6611 85° East 489 563 35,000  Level Salt Lake Center
03:30PM 41.4467 -112.4806 86° East 489 563 35,000  Level Salt Lake Center
03:31PM 41.4567 -112.2997 86° East 488 562 35,000  Level Salt Lake Center
03:32PM 41.4689 -112.0825 86° East 487 560 35,000  Level Salt Lake Center
03:33PM 41.4781 -111.9019 86° East 487 560 35,000  Level Salt Lake Center
03:34PM 41.4881 -111.7211 86° East 486 559 35,000  Level Salt Lake Center
03:35PM 41.4964 -111.5400 86° East 486 559 35,000  Level Salt Lake Center
03:36PM 41.5053 -111.3597 86° East 486 559 35,000  Level Salt Lake Center
03:37PM 41.5119 -111.1814 87° East 481 554 35,000  Level Salt Lake Center
03:38PM 41.5203 -111.0025 86° East 483 556 35,000  Level Salt Lake Center
03:39PM 41.5300 -110.7942 86° East 485 558 35,000  Level Salt Lake Center
03:41PM 41.5364 -110.6242 87° East 482 555 35,000  Level Salt Lake Center
03:42PM 41.5442 -110.4242 87° East 484 557 35,000  Level Salt Lake Center
03:43PM 41.5500 -110.2547 87° East 479 551 35,000  Level Salt Lake Center
03:44PM 41.5578 -110.0547 87° East 482 555 35,000 240 Level Salt Lake Center
03:45PM 41.5633 -109.8836 87° East 483 556 35,500 780 Climbing Salt Lake Center
03:46PM 41.5706 -109.6850 87° East 480 552 36,700 720 Climbing Salt Lake Center
03:47PM 41.5764 -109.5150 87° East 478 550 37,000 120 Climbing Salt Lake Center
03:48PM 41.5817 -109.3436 88° East 480 552 37,000  Level Salt Lake Center
03:49PM 41.5892 -109.1425 87° East 478 550 37,000  Level Salt Lake Center
03:50PM 41.5947 -108.9683 87° East 479 551 37,000  Level Salt Lake Center
03:51PM 41.6097 -108.7700 84° East 477 549 37,000  Level Salt Lake Center
03:52PM 41.6225 -108.6006 84° East 478 550 37,000  Level Salt Lake Center
03:53PM 41.6344 -108.4322 85° East 477 549 37,000  Level Salt Lake Center
03:54PM 41.6481 -108.2356 85° East 475 547 37,000  Level Salt Lake Center
03:55PM 41.6617 -108.0653 84° East 480 552 37,000  Level Salt Lake Center
03:56PM 41.6764 -107.8689 84° East 478 550 37,000  Level Salt Lake Center
03:57PM 41.6833 -107.7539 85° East 478 550 37,000  Level Denver Center
03:58PM 41.6958 -107.5564 85° East 478 550 37,000  Level Denver Center
03:59PM 41.7075 -107.3861 85° East 480 552 37,000  Level Denver Center
04:00PM 41.7200 -107.1883 85° East 479 551 37,000  Level Denver Center
04:01PM 41.7308 -107.0197 85° East 477 549 37,000  Level Denver Center
04:02PM 41.7436 -106.8236 85° East 474 545 37,000  Level Denver Center
04:03PM 41.7531 -106.6533 86° East 478 550 37,000  Level Denver Center
04:04PM 41.7636 -106.4836 85° East 477 549 37,000  Level Denver Center
04:05PM 41.7747 -106.2914 86° East 469 540 37,000  Level Denver Center
04:06PM 41.7844 -106.1242 85° East 469 540 37,000  Level Denver Center
04:07PM 41.7950 -105.9286 86° East 471 542 37,000  Level Denver Center
04:08PM 41.8014 -105.7594 87° East 474 545 37,000  Level Denver Center
04:09PM 41.8106 -105.5642 86° East 472 543 37,000  Level Denver Center
04:10PM 41.8192 -105.3986 86° East 469 540 37,000  Level Denver Center
04:11PM 41.8278 -105.2025 87° East 472 543 37,000  Level Denver Center
04:12PM 41.8342 -105.0628 86° East 473 544 37,000  Level Denver Center
04:13PM 41.8444 -104.8411 86° East 470 541 37,000  Level Denver Center
04:15PM 41.8503 -104.6756 87° East 468 539 37,000  Level Denver Center
04:16PM 41.8586 -104.4797 87° East 471 542 37,000  Level Denver Center
04:17PM 41.8667 -104.2556 87° East 474 545 37,000  Level Denver Center
04:18PM 41.8733 -104.0878 87° East 473 544 37,000  Level Denver Center
04:19PM 41.8800 -103.8919 87° East 472 543 37,000  Level Denver Center
04:21PM 41.8894 -103.5856 88° East 471 542 37,000  Level Denver Center
04:22PM 41.9083 -103.3669 83° East 464 534 37,000  Level Denver Center
04:23PM 41.9372 -103.1769 78° East 465 535 37,000  Level Denver Center
04:24PM 41.9586 -103.0147 80° East 463 533 37,000  Level Denver Center
04:25PM 41.9847 -102.8267 79° East 460 529 37,000  Level Denver Center
04:26PM 42.0064 -102.6653 80° East 459 528 37,000  Level Denver Center
04:27PM 42.0286 -102.5028 80° East 463 533 37,000  Level Denver Center
04:28PM 42.0533 -102.3136 80° East 461 531 37,000  Level Denver Center
04:29PM 42.0772 -102.1308 80° East 459 528 37,000  Level Denver Center
04:30PM 42.0989 -101.9669 80° East 462 532 37,000  Level Denver Center
04:32PM 42.1453 -101.6139 80° East 460 529 37,000  Level Denver Center
04:33PM 42.1611 -101.4778 81° East 460 529 37,000  Level Denver Center
04:34PM 42.1878 -101.2608 81° East 460 529 37,000  Level Denver Center
04:35PM 42.2078 -101.0961 81° East 463 533 37,000  Level Denver Center
04:36PM 42.2294 -100.9053 81° East 461 531 37,000  Level Denver Center
04:37PM 42.2492 -100.7406 81° East 463 533 37,000  Level Denver Center
04:38PM 42.2717 -100.5469 81° East 466 536 37,000  Level Denver Center
04:39PM 42.2911 -100.3817 81° East 466 536 37,000  Level Denver Center
04:40PM 42.3131 -100.1847 81° East 470 541 37,000  Level Denver Center
04:41PM 42.3308 -100.0153 82° East 474 545 37,000  Level Denver Center
04:42PM 42.3531 -99.8222 81° East 470 541 37,000  Level Denver Center
04:43PM 42.3692 -99.6717 82° East 473 544 37,000  Level Denver Center
04:45PM 42.3922 -99.4569 82° East 478 550 37,000  Level Denver Center
04:46PM 42.4186 -99.2075 82° East 480 552 37,000  Level Minneapolis Center
04:47PM 42.4367 -99.0278 82° East 480 552 37,000  Level Minneapolis Center
04:48PM 42.4547 -98.8492 82° East 480 552 37,000  Level Minneapolis Center
04:49PM 42.4714 -98.6697 83° East 479 551 37,000  Level Minneapolis Center
04:50PM 42.4828 -98.4544 86° East 477 549 37,000  Level Minneapolis Center
04:51PM 42.4917 -98.2731 86° East 480 552 37,000  Level Minneapolis Center
04:52PM 42.4992 -98.0911 87° East 483 556 37,000  Level Minneapolis Center
04:53PM 42.5083 -97.9111 86° East 480 552 37,000  Level Minneapolis Center
04:54PM 42.5156 -97.7339 87° East 479 551 37,000  Level Minneapolis Center
04:55PM 42.5233 -97.5539 87° East 478 550 37,000  Level Minneapolis Center
04:56PM 42.5322 -97.3367 87° East 479 551 37,000  Level Minneapolis Center
04:57PM 42.5386 -97.1564 87° East 478 550 37,000  Level Minneapolis Center
04:58PM 42.5453 -96.9769 87° East 477 549 37,000  Level Minneapolis Center
04:59PM 42.5525 -96.7967 87° East 478 550 37,000  Level Minneapolis Center
05:01PM 42.5578 -96.6158 88° East 478 550 37,000  Level Minneapolis Center
05:02PM 42.5639 -96.4319 87° East 483 556 37,000  Level Minneapolis Center
05:03PM 42.5700 -96.2481 87° East 485 558 37,000  Level Minneapolis Center
05:04PM 42.5761 -96.0247 88° East 491 565 37,000  Level Minneapolis Center
05:05PM 42.5811 -95.8361 88° East 498 573 37,000  Level Minneapolis Center
05:06PM 42.5858 -95.6442 88° East 505 581 37,000  Level Minneapolis Center
05:07PM 42.5911 -95.4492 88° East 512 589 37,000  Level Minneapolis Center
05:08PM 42.5950 -95.2542 88° East 516 594 37,000  Level Minneapolis Center
05:09PM 42.5992 -95.0581 88° East 519 597 37,000  Level Minneapolis Center
05:10PM 42.6031 -94.8178 89° East 526 605 37,000  Level Minneapolis Center
05:11PM 42.6067 -94.6189 89° East 528 608 37,000  Level Minneapolis Center
05:12PM 42.6078 -94.4158 90° East 539 620 37,000  Level Minneapolis Center
05:13PM 42.6106 -94.2153 89° East 539 620 37,000  Level Minneapolis Center
05:14PM 42.6111 -94.0139 90° East 539 620 37,000  Level Minneapolis Center
05:15PM 42.6128 -93.8128 89° East 539 620 37,000  Level Minneapolis Center
05:16PM 42.6142 -93.5694 89° East 541 623 37,000 240 Level Minneapolis Center
05:17PM 42.6153 -93.3661 90° East 545 627 37,500 720 Climbing Minneapolis Center
05:18PM 42.6167 -93.1636 89° East 543 625 38,500 720 Climbing Minneapolis Center
05:19PM 42.6164 -92.9639 90° East 539 620 39,000 240 Climbing Minneapolis Center
05:20PM 42.6153 -92.7639 90° East 535 616 39,000  Level Minneapolis Center
05:21PM 42.6153 -92.5197 90° East 541 623 39,000  Level Minneapolis Center
05:22PM 42.6131 -92.3167 91° East 545 627 39,000  Level Minneapolis Center
05:23PM 42.6114 -92.1142 91° East 545 627 39,000  Level Minneapolis Center
05:24PM 42.6092 -91.9114 91° East 545 627 39,000  Level Minneapolis Center
05:25PM 42.6064 -91.6692 91° East 549 632 39,000  Level Minneapolis Center
05:26PM 42.6028 -91.4681 91° East 551 634 39,000  Level Minneapolis Center
05:27PM 42.5989 -91.2678 91° East 546 628 39,000  Level Minneapolis Center
05:28PM 42.5944 -91.0269 91° East 540 621 39,000  Level Minneapolis Center
05:29PM 42.5906 -90.8228 91° East 544 626 39,000  Level Minneapolis Center
05:31PM 42.5867 -90.6033 91° East 543 625 39,000  Level Minneapolis Center
05:33PM 42.5767 -90.0875 91° East 554 638 39,000  Level Chicago Center
05:34PM 42.5675 -89.8758 93° East 557 641 39,000  Level Chicago Center
05:35PM 42.5628 -89.6661 92° East 561 646 39,000  Level Chicago Center
05:36PM 42.5544 -89.4558 93° East 562 647 39,000  Level Chicago Center
05:37PM 42.5483 -89.2439 92° East 567 652 39,000  Level Chicago Center
05:38PM 42.5408 -89.0342 93° East 564 649 39,000  Level Chicago Center
05:39PM 42.5314 -88.7822 93° East 563 648 39,000  Level Chicago Center
05:40PM 42.5239 -88.5747 93° East 559 643 39,000  Level Chicago Center
05:41PM 42.5156 -88.3692 93° East 553 636 39,000  Level Chicago Center
05:42PM 42.5072 -88.1644 93° East 549 632 39,000  Level Chicago Center
05:43PM 42.4997 -87.9589 93° East 550 633 39,000  Level Chicago Center
05:44PM 42.4989 -87.7350 90° East 546 628 39,000  Level Chicago Center
05:45PM 42.4986 -87.5292 90° East 547 629 39,000  Level Chicago Center
05:46PM 42.4975 -87.2831 90° East 547 629 39,000  Level Chicago Center
05:47PM 42.4964 -87.0772 90° East 548 631 39,000  Level Chicago Center
05:49PM 42.4942 -86.8722 91° East 546 628 39,000  Level Chicago Center
05:50PM 42.4914 -86.6500 91° East 544 626 39,000  Level Chicago Center
05:51PM 42.4892 -86.4392 91° East 548 631 39,000  Level Chicago Center
05:52PM 42.4858 -86.2347 91° East 549 632 39,000  Level Chicago Center
05:53PM 42.4825 -86.0314 91° East 546 628 39,000  Level Chicago Center
05:54PM 42.4792 -85.8253 91° East 551 634 39,000  Level Chicago Center
05:55PM 42.4758 -85.6194 91° East 552 635 39,000  Level Chicago Center
05:56PM 42.4706 -85.3711 92° East 554 638 39,000  Level Chicago Center
05:57PM 42.4661 -85.1653 92° East 553 636 39,000  Level Chicago Center
05:58PM 42.4608 -84.9606 92° East 550 633 39,000  Level Chicago Center
05:59PM 42.4556 -84.7556 92° East 548 631 39,000  Level Chicago Center
06:00PM 42.4486 -84.5514 93° East 546 628 39,000  Level Chicago Center
06:01PM 42.4419 -84.3086 92° East 542 624 39,000  Level Chicago Center
06:02PM 42.4367 -84.1675 93° East 543 625 39,000  Level Cleveland Center
06:03PM 42.4300 -83.9642 92° East 539 620 39,000  Level Cleveland Center
06:04PM 42.4225 -83.7614 93° East 539 620 39,000  Level Cleveland Center
06:05PM 42.4147 -83.5500 93° East 536 617 39,000  Level Cleveland Center
06:06PM 42.4072 -83.3444 93° East 540 621 39,000  Level Cleveland Center
06:07PM 42.3975 -83.1433 94° East 537 618 39,000  Level Cleveland Center
06:08PM 42.3886 -82.9447 93° East 532 612 39,000  Level Cleveland Center
06:09PM 42.3800 -82.7461 93° East 530 610 39,000  Level Cleveland Center
06:10PM 42.3697 -82.5100 93° East 527 606 39,000  Level Cleveland Center
06:11PM 42.3628 -82.3144 93° East 524 603 39,000  Level Cleveland Center
06:12PM 42.3542 -82.1125 93° East 523 602 39,000  Level Cleveland Center
06:13PM 42.3461 -81.9147 93° East 522 601 39,000  Level Cleveland Center
06:14PM 42.3367 -81.7194 94° East 518 596 39,000  Level Cleveland Center
06:15PM 42.3281 -81.5239 93° East 516 594 39,000  Level Cleveland Center
06:16PM 42.3181 -81.3283 94° East 515 593 39,000  Level Cleveland Center
06:17PM 42.3086 -81.1339 94° East 514 592 39,000  Level Cleveland Center
06:18PM 42.2961 -80.9078 94° East 513 590 39,000  Level Cleveland Center
06:19PM 42.2853 -80.7142 94° East 512 589 39,000  Level Cleveland Center
06:20PM 42.2647 -80.5264 98° East 506 582 39,000  Level Cleveland Center
06:21PM 42.2356 -80.3361 102° East 511 588 39,000  Level Cleveland Center
06:22PM 42.2044 -80.1472 102° East 512 589 39,000  Level Cleveland Center
06:23PM 42.1733 -79.9547 102° East 511 588 39,000  Level Cleveland Center
06:24PM 42.1425 -79.7736 103° East 504 580 39,000  Level Cleveland Center
06:25PM 42.1122 -79.5878 102° East 510 587 39,000  Level Cleveland Center
06:26PM 42.0761 -79.3669 102° East 506 582 39,000  Level Cleveland Center
06:28PM 42.0444 -79.1847 103° East 503 579 39,000  Level Cleveland Center
06:29PM 42.0147 -79.0017 102° East 505 581 39,000  Level Cleveland Center
06:30PM 41.9833 -78.8231 103° East 496 571 39,000  Level Cleveland Center
06:31PM 41.9517 -78.6428 103° East 496 571 39,000  Level Cleveland Center
06:32PM 41.9133 -78.4267 103° East 497 572 39,000  Level Cleveland Center
06:33PM 41.8817 -78.2489 103° East 496 571 39,000 -60 Level Cleveland Center
06:34PM 41.8503 -78.0725 103° East 490 564 38,900 -300 Descending Cleveland Center
06:35PM 41.8183 -77.8997 104° East 482 555 38,500 -660 Descending Cleveland Center
06:36PM 41.7881 -77.7325 104° East 470 541 37,600 -1,560 Descending Cleveland Center
06:37PM 41.7578 -77.5672 104° East 460 529 35,300 -1,260 Descending Cleveland Center
06:38PM 41.7219 -77.3803 104° East 462 532 35,000 -720 Descending Cleveland Center
06:39PM 41.6917 -77.2172 104° East 458 527 33,900 -1,380 Descending Cleveland Center
06:40PM 41.6556 -77.0606 107° East 445 512 32,200 -1,440 Descending Cleveland Center
06:41PM 41.6106 -76.9081 111° Southeast 438 504 31,000 -1,320 Descending New York Center
06:42PM 41.5742 -76.7661 109° East 414 476 29,700 -1,380 Descending New York Center
06:43PM 41.5353 -76.6267 110° East 388 447 28,300 -1,440 Descending New York Center
06:44PM 41.5019 -76.5019 110° East 366 421 26,900 -1,680 Descending New York Center
06:45PM 41.4681 -76.3772 110° East 354 407 25,000 -1,740 Descending New York Center
06:46PM 41.4364 -76.2528 109° East 354 407 23,400 -1,020 Descending New York Center
06:47PM 41.3983 -76.1308 113° Southeast 354 407 23,000 -240 Descending New York Center
06:48PM 41.3639 -76.0147 112° Southeast 348 400 23,000  Level New York Center
06:49PM 41.3350 -75.9131 111° Southeast 338 389 23,000  Level New York Center
06:50PM 41.3006 -75.7944 111° Southeast 338 389 23,000  Level New York Center
06:51PM 41.2622 -75.6672 112° Southeast 338 389 23,000  Level New York Center
06:52PM 41.2272 -75.5544 112° Southeast 344 396 23,000  Level New York Center
06:53PM 41.1881 -75.4414 115° Southeast 344 396 23,000  Level New York Center
06:54PM 41.1508 -75.3258 113° Southeast 344 396 23,000 -60 Level New York Center
06:55PM 41.1094 -75.2100 115° Southeast 344 396 22,900 -660 Descending New York Center
06:56PM 41.0719 -75.0975 114° Southeast 344 396 21,700 -1,440 Descending New York Center
06:57PM 41.0322 -74.9850 115° Southeast 339 390 20,100 -1,380 Descending New York Center
06:58PM 40.9969 -74.8647 111° Southeast 328 377 19,000 -600 Descending New York Center
06:59PM 40.9839 -74.7567 99° East 313 360 19,000  Level New York Center
07:00PM 40.9694 -74.6294 99° East 313 360 19,000  Level New York Center
07:01PM 40.9583 -74.5217 98° East 319 367 19,000  Level New York Center
07:02PM 40.9456 -74.3944 98° East 319 367 19,000  Level New York Center
07:03PM 40.9322 -74.2894 100° East 319 367 19,000  Level New York Center
07:04PM 40.9189 -74.1708 98° East 319 367 19,000 -420 Level New York Center
07:05PM 40.8461 -74.0986 143° Southeast 287 330 18,200 -1,200 Descending New York Center
07:06PM 40.7531 -74.0747 169° South 300 345 16,600 -1,500 Descending New York Center
07:07PM 40.6333 -74.0500 171° South 321 369 14,800 -1,440 Descending New York TRACON
07:08PM 40.5500 -74.0167 163° South 307 353 13,200 -1,440 Descending New York TRACON
07:09PM 40.4833 -73.9500 143° Southeast 298 343 11,800 -1,440 Descending New York TRACON
07:10PM 40.4167 -73.8833 143° Southeast 289 333 10,400 -1,680 Descending New York TRACON
07:11PM 40.3667 -73.8167 135° Southeast 277 319 8,500 -2,160 Descending New York TRACON
07:12PM 40.3333 -73.7333 118° Southeast 286 329 6,400 -2,160 Descending New York TRACON
07:13PM 40.3667 -73.6333 66° East 278 320 4,500 -1,200 Descending New York TRACON
07:14PM 40.4000 -73.5667 57° Northeast 280 322 4,000 -240 Descending New York TRACON
07:15PM 40.4833 -73.5167 25° Northeast 280 322 4,000  Level New York TRACON
07:16PM 40.5500 -73.5167 360° North 277 319 4,000 -540 Level New York TRACON
07:17PM 40.6333 -73.5333 351° North 269 310 3,000 -960 Descending New York TRACON
07:18PM 40.7167 -73.5333 360° North 259 298 2,000 -540 Descending New York TRACON
07:19PM 40.7667 -73.5333 360° North 227 261 2,000  Level New York TRACON
07:20PM 40.7833 -73.5833 294° West 190 219 2,000  Level New York TRACON
07:21PM 40.7667 -73.6500 252° West 185 213 2,000 -60 Level New York TRACON
07:22PM 40.7333 -73.6833 217° Southwest 145 167 1,900 -360 Descending New York TRACON
07:23PM 40.7000 -73.7167 217° Southwest 127 146 1,300 -660 Descending New York TRACON
07:24PM 40.6667 -73.7333 201° Southwest 124 143 600 -660 Descending New York TRACON